Shelbyville, IN

5:52 AM EDT on May 23, 2017 (GMT -0400)
Shelbyville Municipal

Weather History for KGEZ - January, 2014

Change the Weather History Date:

Thursday, January 16, 2014

  Actual Average Record
Temperature  
Mean Temperature 26 °F 29 °F  
Max Temperature 32 °F 36 °F 55 °F (2006)
Min Temperature 19 °F 21 °F -11 °F (2009)
Degree Days  
Heating Degree Days 39 36  
Month to date heating degree days 607 576  
Since 1 July heating degree days 2686 2680  
Cooling Degree Days 0 0  
Month to date cooling degree days 0 0  
Year to date cooling degree days 0 0  
Moisture  
Dew Point 20 °F    
Average Humidity 72    
Maximum Humidity 81    
Minimum Humidity 62    
Precipitation  
Precipitation 0.02 in 0.09 in 0.49 in (2017)
Month to date precipitation 1.91 1.47  
Year to date precipitation 1.91 1.47  
Sea Level Pressure  
Sea Level Pressure 29.80 in    
Wind  
Wind Speed 15 mph (South)    
Max Wind Speed 25 mph    
Max Gust Speed 32 mph    
Visibility 6 miles    
Events Fog , Snow    
T = Trace of Precipitation, MM = Missing Value Source: NWS Daily Summary

Daily Weather History Graph

Daily Weather History Graph

Search for Another Location

Airport or City:

Trip Planner

Search our weather history database for the weather conditions in past years. The results will help you decide how hot, cold, wet, or windy it might be!

Date:

Astronomy

Jan. 16, 2014 Rise Set
Actual Time 8:01 AM EST 5:44 PM EST
Civil Twilight 7:32 AM EST 6:14 PM EST
Nautical Twilight 6:59 AM EST 6:47 PM EST
Astronomical Twilight 6:26 AM EST 7:19 PM EST
Moon 6:35 PM EST (1/16) 7:55 AM EST (1/16)
Length of Visible Light 10h 42m
Length of Day
9h 43m
Full, 100% of the Moon is Illuminated
Jan 16
Full
Jan 24
Last Quarter
Jan 30
New
Feb 6
First Quarter
Feb 14
Full

Hourly Weather History & Observations

Time (EST) Temp. Windchill Dew Point Humidity Pressure Visibility Wind Dir Wind Speed Gust Speed Precip Events Conditions
12:21 AM 19.9 °F 12.1 °F 12.0 °F 71% 30.03 in 10.0 mi SSW 5.8 mph - N/A   Scattered Clouds
12:53 AM 19.9 °F 11.1 °F 12.0 °F 71% 30.05 in 10.0 mi South 6.9 mph - N/A   Clear
1:53 AM 19.9 °F 8.6 °F 12.0 °F 71% 30.02 in 10.0 mi South 10.4 mph - N/A   Clear
2:53 AM 19.9 °F 9.3 °F 12.9 °F 74% 30.02 in 10.0 mi South 9.2 mph - N/A   Clear
3:53 AM 19.9 °F 7.9 °F 12.9 °F 74% 29.99 in 10.0 mi South 11.5 mph - N/A   Scattered Clouds
4:53 AM 21.9 °F 8.7 °F 14.0 °F 72% 29.96 in 10.0 mi South 15.0 mph - N/A   Overcast
5:53 AM 23.0 °F 9.6 °F 15.1 °F 72% 29.91 in 10.0 mi South 16.1 mph - N/A   Overcast
6:53 AM 24.1 °F 10.1 °F 15.1 °F 69% 29.89 in 10.0 mi South 18.4 mph - N/A   Overcast
7:53 AM 24.1 °F 11.0 °F 16.0 °F 71% 29.88 in 10.0 mi South 16.1 mph - N/A   Overcast
8:49 AM 24.8 °F 11.1 °F 17.6 °F 74% 29.84 in 1.8 mi South 18.4 mph - 0.00 in Snow Light Snow
8:53 AM 24.1 °F 10.6 °F 17.1 °F 75% 29.87 in 1.0 mi South 17.3 mph - 0.00 in Snow Light Snow
9:02 AM 24.1 °F 10.1 °F 18.0 °F 77% 29.84 in 0.5 mi South 18.4 mph - 0.00 in Snow Snow
9:16 AM 24.1 °F 11.5 °F 19.0 °F 81% 29.84 in 0.8 mi South 15.0 mph - 0.00 in Snow Light Snow
9:33 AM 24.1 °F 10.1 °F 19.0 °F 81% 29.84 in 0.8 mi South 18.4 mph - 0.00 in Snow Light Snow
9:53 AM 24.1 °F 11.0 °F 19.9 °F 84% 29.88 in 0.8 mi South 16.1 mph - 0.00 in Snow Light Snow
10:46 AM 25.0 °F 11.3 °F 19.9 °F 81% 29.83 in 0.5 mi South 18.4 mph 27.6 mph 0.01 in Snow Snow
10:53 AM 25.0 °F 10.2 °F 19.9 °F 81% 29.86 in 0.5 mi South 21.9 mph 26.5 mph 0.01 in Snow Snow
11:32 AM 25.0 °F 9.5 °F 21.0 °F 85% 29.79 in 0.5 mi South 24.2 mph 31.1 mph 0.01 in Fog , Snow Light Snow
11:53 AM 26.1 °F 11.0 °F 21.0 °F 81% 29.81 in 0.5 mi South 24.2 mph 29.9 mph 0.01 in Snow Snow
12:11 PM 26.1 °F 11.3 °F 21.0 °F 81% 29.78 in 1.0 mi South 23.0 mph 29.9 mph 0.00 in Snow Light Snow
12:25 PM 26.1 °F 11.6 °F 21.0 °F 81% 29.76 in 1.0 mi South 21.9 mph - 0.00 in Snow Light Snow
12:32 PM 26.1 °F 11.6 °F 21.0 °F 81% 29.75 in 0.8 mi South 21.9 mph 28.8 mph 0.00 in Snow Light Snow
12:43 PM 26.1 °F 11.0 °F 21.0 °F 81% 29.74 in 1.2 mi South 24.2 mph - 0.00 in Snow Light Snow
12:50 PM 26.6 °F 12.4 °F 21.2 °F 80% 29.74 in 2.0 mi South 21.9 mph 28.8 mph 0.00 in Snow Light Snow
12:53 PM 26.1 °F 12.7 °F 21.0 °F 81% 29.78 in 3.0 mi South 18.4 mph 27.6 mph 0.00 in Snow Light Snow
1:03 PM 26.1 °F 12.3 °F 21.0 °F 81% 29.74 in 7.0 mi South 19.6 mph - 0.00 in   Overcast
1:53 PM 28.0 °F 16.1 °F 21.9 °F 78% 29.74 in 6.0 mi South 16.1 mph - 0.00 in Snow Light Snow
2:53 PM 28.9 °F 16.5 °F 23.0 °F 78% 29.73 in 10.0 mi South 18.4 mph - 0.00 in   Overcast
3:11 PM 28.9 °F 16.9 °F 23.0 °F 78% 29.69 in 9.0 mi South 17.3 mph - N/A   Overcast
3:19 PM 28.9 °F 16.5 °F 23.0 °F 78% 29.69 in 8.0 mi South 18.4 mph - 0.00 in Snow Light Snow
3:50 PM 28.4 °F 15.4 °F 23.0 °F 80% 29.69 in 1.5 mi SSW 19.6 mph - 0.00 in Snow Light Snow
3:53 PM 28.9 °F 16.9 °F 23.0 °F 78% 29.72 in 0.8 mi SSW 17.3 mph - 0.00 in Snow Light Snow
4:06 PM 28.9 °F 17.7 °F 24.1 °F 82% 29.70 in 1.0 mi South 15.0 mph - 0.00 in Snow Light Snow
4:11 PM 28.9 °F 16.9 °F 23.0 °F 78% 29.70 in 4.0 mi South 17.3 mph - 0.00 in Snow Light Snow
4:23 PM 30.0 °F 17.5 °F 23.0 °F 75% 29.69 in 7.0 mi South 19.6 mph - 0.00 in   Overcast
4:53 PM 30.0 °F 19.1 °F 23.0 °F 75% 29.73 in 10.0 mi South 15.0 mph - 0.00 in   Overcast
5:53 PM 30.0 °F 18.7 °F 21.9 °F 72% 29.74 in 10.0 mi South 16.1 mph - N/A   Overcast
6:53 PM 30.9 °F 19.8 °F 21.9 °F 69% 29.74 in 10.0 mi South 16.1 mph - N/A   Overcast
7:32 PM 30.9 °F 20.7 °F 23.0 °F 72% 29.73 in 2.5 mi South 13.8 mph - 0.00 in Snow Light Snow
7:37 PM 30.0 °F 19.5 °F 24.1 °F 79% 29.73 in 1.2 mi South 13.8 mph - 0.00 in Snow Light Snow
7:45 PM 30.9 °F 21.2 °F 24.1 °F 76% 29.73 in 2.0 mi South 12.7 mph - 0.00 in Snow Light Snow
7:53 PM 30.9 °F 21.2 °F 24.1 °F 76% 29.76 in 9.0 mi South 12.7 mph - 0.00 in   Overcast
8:53 PM 30.9 °F 21.7 °F 23.0 °F 72% 29.77 in 9.0 mi South 11.5 mph - 0.00 in Snow Light Snow
9:53 PM 28.9 °F 21.1 °F 24.1 °F 82% 29.79 in 10.0 mi SSW 8.1 mph - 0.00 in   Mostly Cloudy
10:34 PM 32.0 °F 24.2 °F 26.1 °F 79% 29.77 in 10.0 mi SW 9.2 mph - N/A   Overcast
10:44 PM 30.9 °F 22.8 °F 25.0 °F 79% 29.76 in 10.0 mi SSW 9.2 mph - N/A   Scattered Clouds
10:53 PM 30.0 °F 21.7 °F 24.1 °F 79% 29.79 in 10.0 mi SW 9.2 mph - N/A   Partly Cloudy
11:53 PM 28.9 °F 20.4 °F 23.0 °F 78% 29.79 in 10.0 mi South 9.2 mph - N/A   Partly Cloudy